Hourly Data Report for October 02, 2014

All times are specified in Local Standard Time (LST). Add 1 hour to adjust for Daylight Saving Time where and when it is observed.

PENTICTON A
BRITISH COLUMBIA

49°27'45.000" N
119°36'08.000" W
344.40 m
1126146
71889
YYF

Download Data

Hourly Data (October 2014)
Hourly Data Report for October 2, 2014
Temp Definition
°C
Dew Point Temp Definition
°C
Rel Hum Definition
%
Wind Dir Definition
10's deg

Wind Spd Definition
km/h
Visibility Definition
km
Stn Press Definition
kPa
Hmdx Definition


Wind Chill Definition


Weather Definition


TIME
00:00 Legend Double Dagger 13.1 1.8 46 35 12 24.1 97.92     LegendNANA
01:00 Legend Double Dagger 12.5 2.1 49 1 10 24.1 97.98     Cloudy
02:00 Legend Double Dagger 12.3 2.0 49 35 13 24.1 98.04     LegendNANA
03:00 Legend Double Dagger 12.7 -0.2 41 33 15 24.1 98.08     LegendNANA
04:00 Legend Double Dagger 11.0 0.7 49 1 15 24.1 98.15     Mostly Cloudy
05:00 Legend Double Dagger 9.3 0.0 52 2 10 24.1 98.24     LegendNANA
06:00 Legend Double Dagger 8.5 0.5 57 32 11 24.1 98.34     LegendNANA
07:00 Legend Double Dagger 9.8 -0.1 50 35 11 24.1 98.42     Mostly Cloudy
08:00 Legend Double Dagger 11.9 -1.6 39 5 19 24.1 98.53     LegendNANA
09:00 Legend Double Dagger 17.5 5.1 44 3 16 24.1 98.55     LegendNANA
10:00 Legend Double Dagger 14.4 -2.0 32 4 18 24.1 98.60     Mainly Clear
11:00 Legend Double Dagger 14.6 -2.3 31 4 11 24.1 98.57     LegendNANA
12:00 Legend Double Dagger 15.8 -2.1 29 36 14 24.1 98.55     LegendNANA
13:00 Legend Double Dagger 16.0 -2.9 27 33 7 24.1 98.54     Mainly Clear
14:00 Legend Double Dagger 16.8 -2.7 26 32 8 24.1 98.53     LegendNANA
15:00 Legend Double Dagger 17.0 -3.1 25 34 10 24.1 98.50     LegendNANA
16:00 Legend Double Dagger 16.3 -0.8 31 36 15 24.1 98.49     Mainly Clear
17:00 Legend Double Dagger 14.0 -1.6 34 31 7 24.1 98.51     LegendNANA
18:00 Legend Double Dagger 8.9 -0.4 52 36 9 24.1 98.58     LegendNANA
19:00 Legend Double Dagger 10.2 -0.9 46 35 15 24.1 98.64     Clear
20:00 Legend Double Dagger 9.9 -1.2 46 35 17 24.1 98.66     LegendNANA
21:00 Legend Double Dagger 9.0 -1.1 49 34 13 24.1 98.71     LegendNANA
22:00 Legend Double Dagger 7.3 -1.1 55 36 17 24.1 98.72     Clear
23:00 Legend Double Dagger 5.5 -1.0 63 35 13 24.1 98.75     LegendNANA

Notes on Data Quality.

Legend

  • E = Estimated
  • M = Missing
  • NA = Not Available
  • ‡ = Partner data that is not subject to review by the National Climate Archives
Date modified: